QPF
0.01 0.01 0.02 0.04 0.03 0.04 0.05 0.04 0.01 0.01 0.01 0.01 0.01 0.01 0.01 0.02 0.02 0.03 0.04 0.05 0.06 0.05 0.04 0.04 0.03 0.02 0.02 0.02 0.02 0.02 0.02 0.02 0.02 0.02 0.02 0.03 0.02 0.02 0.03 0.03 0.04 0.04 0.05 0.05 0.05 0.04 0.05 0.06 0.06
0.01 0.02 0.03 0.04 0.04 0.03 0.05 0.03 0.01 0.01 0.00 0.00 0.00 0.00 0.00 0.00 0.01 0.02 0.03 0.05 0.04 0.03 0.02 0.02 0.02 0.01 0.02 0.03 0.02 0.02 0.02 0.02 0.03 0.04 0.04 0.04 0.03 0.03 0.03 0.03 0.03 0.04 0.05 0.06 0.05 0.04 0.04 0.05 0.05
0.02 0.02 0.03 0.03 0.02 0.03 0.04 0.02 0.01 0.00 0.00 0.00 0.00 0.00 0.00 0.01 0.01 0.01 0.02 0.03 0.01 0.02 0.01 0.01 0.02 0.02 0.02 0.02 0.02 0.02 0.03 0.03 0.04 0.05 0.04 0.04 0.04 0.02 0.03 0.04 0.02 0.03 0.05 0.05 0.04 0.04 0.03 0.03 0.03
0.01 0.02 0.02 0.01 0.01 0.01 0.01 0.01 0.01 0.00 0.00 0.00 0.01 0.00 0.00 0.01 0.01 0.01 0.01 0.01 0.01 0.00 0.01 0.01 0.02 0.02 0.01 0.01 0.02 0.01 0.02 0.02 0.01 0.01 0.02 0.03 0.03 0.02 0.04 0.03 0.02 0.03 0.05 0.04 0.03 0.02 0.02 0.02 0.03
0.02 0.02 0.01 0.01 0.01 0.02 0.01 0.00 0.00 0.00 0.01 0.01 0.01 0.01 0.01 0.01 0.01 0.01 0.01 0.01 0.01 0.00 0.00 0.01 0.02 0.02 0.02 0.02 0.01 0.01 0.02 0.01 0.01 0.01 0.01 0.02 0.02 0.03 0.03 0.02 0.02 0.02 0.02 0.02 0.02 0.02 0.03 0.04 0.06
0.01 0.01 0.01 0.01 0.01 0.02 0.01 0.01 0.00 0.00 0.01 0.02 0.00 0.00 0.02 0.03 0.01 0.01 0.00 0.00 0.00 0.00 0.00 0.01 0.02 0.02 0.02 0.02 0.02 0.02 0.02 0.01 0.01 0.01 0.01 0.01 0.02 0.03 0.03 0.02 0.01 0.01 0.01 0.02 0.02 0.02 0.03 0.05 0.08
0.01 0.01 0.00 0.00 0.01 0.01 0.01 0.00 0.00 0.00 0.00 0.00 0.00 0.00 0.02 0.03 0.01 0.00 0.00 0.00 0.00 0.00 0.00 0.00 0.00 0.01 0.01 0.01 0.02 0.02 0.02 0.01 0.01 0.01 0.01 0.01 0.01 0.02 0.01 0.01 0.01 0.01 0.01 0.01 0.01 0.01 0.03 0.03 0.06
0.01 0.01 0.00 0.00 0.01 0.01 0.01 0.00 0.00 0.00 0.00 0.00 0.00 0.00 0.01 0.02 0.01 0.01 0.00 0.00 0.00 0.00 0.00 0.01 0.01 0.00 0.00 0.00 0.01 0.01 0.01 0.01 0.01 0.01 0.01 0.01 0.01 0.01 0.02 0.02 0.01 0.02 0.01 0.02 0.01 0.02 0.03 0.02 0.03
0.01 0.01 0.00 0.00 0.01 0.01 0.01 0.00 0.00 0.00 0.00 0.00 0.00 0.00 0.00 0.00 0.00 0.01 0.01 0.01 0.00 0.00 0.00 0.00 0.00 0.00 0.00 0.00 0.00 0.00 0.01 0.01 0.01 0.01 0.01 0.01 0.00 0.00 0.01 0.01 0.02 0.02 0.02 0.02 0.02 0.03 0.03 0.02 0.02
0.01 0.01 0.01 0.00 0.00 0.01 0.01 0.00 0.00 0.00 0.00 0.00 0.00 0.00 0.01 0.01 0.01 0.01 0.02 0.02 0.00 0.00 0.00 0.01 0.00 0.00 0.01 0.00 0.00 0.00 0.00 0.00 0.01 0.01 0.02 0.01 0.00 0.01 0.00 0.00 0.02 0.04 0.03 0.01 0.02 0.03 0.03 0.02 0.01
0.01 0.00 0.01 0.00 0.00 0.00 0.00 0.00 0.00 0.00 0.00 0.00 0.00 0.00 0.00 0.00 0.00 0.01 0.01 0.01 0.00 0.00 0.00 0.01 0.00 0.00 0.01 0.01 0.01 0.00 0.01 0.01 0.01 0.01 0.01 0.01 0.00 0.00 0.01 0.00 0.01 0.02 0.02 0.01 0.01 0.01 0.01 0.00 0.00
0.00 0.00 0.00 0.00 0.00 0.01 0.01 0.00 0.00 0.00 0.00 0.00 0.00 0.00 0.00 0.00 0.00 0.01 0.01 0.01 0.00 0.00 0.01 0.01 0.01 0.01 0.01 0.01 0.00 0.00 0.00 0.01 0.01 0.01 0.01 0.01 0.01 0.01 0.01 0.01 0.01 0.01 0.01 0.01 0.00 0.00 0.00 0.01 0.01
0.00 0.00 0.00 0.00 0.01 0.01 0.01 0.01 0.01 0.00 0.00 0.00 0.00 0.00 0.00 0.00 0.00 0.01 0.01 0.01 0.00 0.00 0.01 0.01 0.01 0.01 0.01 0.01 0.00 0.01 0.01 0.00 0.01 0.01 0.01 0.01 0.02 0.02 0.01 0.01 0.02 0.01 0.01 0.01 0.01 0.01 0.01 0.02 0.02
0.00 0.00 0.00 0.00 0.01 0.01 0.01 0.01 0.01 0.01 0.00 0.00 0.00 0.01 0.01 0.01 0.01 0.01 0.01 0.01 0.01 0.00 0.00 0.01 0.01 0.01 0.01 0.01 0.01 0.01 0.01 0.00 0.00 0.00 0.01 0.01 0.02 0.01 0.01 0.01 0.01 0.01 0.02 0.02 0.02 0.01 0.01 0.02 0.02
0.00 0.01 0.01 0.01 0.01 0.01 0.02 0.02 0.01 0.01 0.01 0.00 0.00 0.00 0.01 0.01 0.01 0.01 0.01 0.02 0.01 0.00 0.00 0.00 0.01 0.00 0.00 0.01 0.02 0.01 0.00 0.00 0.00 0.00 0.00 0.00 0.01 0.01 0.01 0.02 0.01 0.01 0.01 0.01 0.01 0.02 0.02 0.01 0.01
0.01 0.01 0.02 0.01 0.01 0.02 0.03 0.03 0.02 0.02 0.02 0.02 0.02 0.01 0.01 0.01 0.01 0.01 0.01 0.01 0.02 0.01 0.01 0.00 0.01 0.01 0.01 0.01 0.02 0.02 0.01 0.00 0.00 0.01 0.01 0.01 0.01 0.01 0.01 0.01 0.01 0.01 0.01 0.01 0.01 0.02 0.02 0.02 0.02
0.01 0.01 0.01 0.01 0.01 0.02 0.03 0.03 0.02 0.01 0.02 0.02 0.03 0.02 0.02 0.01 0.01 0.01 0.02 0.01 0.01 0.01 0.01 0.01 0.02 0.01 0.01 0.01 0.01 0.02 0.01 0.01 0.00 0.01 0.01 0.01 0.01 0.01 0.00 0.00 0.01 0.01 0.01 0.02 0.01 0.02 0.02 0.01 0.01
0.01 0.01 0.01 0.01 0.01 0.02 0.03 0.02 0.02 0.02 0.02 0.02 0.03 0.05 0.06 0.03 0.02 0.01 0.02 0.02 0.02 0.01 0.01 0.01 0.01 0.01 0.02 0.02 0.02 0.02 0.01 0.01 0.01 0.01 0.01 0.01 0.01 0.01 0.01 0.00 0.01 0.01 0.01 0.02 0.02 0.01 0.01 0.01 0.02
0.01 0.01 0.01 0.01 0.01 0.01 0.02 0.03 0.02 0.02 0.01 0.02 0.02 0.03 0.05 0.05 0.04 0.02 0.02 0.03 0.03 0.03 0.02 0.01 0.01 0.01 0.01 0.01 0.01 0.01 0.01 0.02 0.02 0.01 0.01 0.01 0.01 0.01 0.01 0.01 0.01 0.01 0.01 0.01 0.01 0.01 0.01 0.01 0.02
0.01 0.01 0.01 0.01 0.02 0.02 0.02 0.02 0.01 0.02 0.02 0.01 0.02 0.02 0.02 0.02 0.03 0.02 0.03 0.03 0.03 0.03 0.02 0.02 0.01 0.01 0.00 0.01 0.01 0.00 0.00 0.01 0.01 0.01 0.01 0.01 0.00 0.00 0.00 0.00 0.00 0.00 0.02 0.03 0.02 0.01 0.01 0.01 0.01
0.00 0.00 0.01 0.01 0.01 0.02 0.03 0.03 0.02 0.01 0.02 0.02 0.02 0.02 0.02 0.03 0.04 0.02 0.03 0.04 0.03 0.03 0.03 0.03 0.01 0.00 0.00 0.00 0.00 0.00 0.00 0.00 0.00 0.00 0.01 0.01 0.00 0.00 0.00 0.00 0.00 0.00 0.01 0.02 0.02 0.01 0.01 0.01 0.01
0.00 0.00 0.00 0.01 0.01 0.01 0.02 0.03 0.02 0.01 0.01 0.03 0.04 0.03 0.03 0.03 0.06 0.05 0.03 0.03 0.04 0.03 0.03 0.03 0.02 0.01 0.00 0.00 0.00 0.00 0.00 0.00 0.00 0.01 0.01 0.01 0.00 0.00 0.01 0.01 0.01 0.01 0.01 0.02 0.03 0.01 0.01 0.01 0.01
0.01 0.00 0.01 0.01 0.01 0.01 0.01 0.02 0.01 0.02 0.02 0.02 0.04 0.02 0.01 0.01 0.02 0.05 0.05 0.03 0.04 0.04 0.03 0.03 0.02 0.02 0.01 0.01 0.01 0.00 0.00 0.01 0.01 0.01 0.01 0.01 0.01 0.01 0.01 0.02 0.02 0.02 0.02 0.02 0.03 0.03 0.02 0.01 0.01
0.01 0.01 0.01 0.01 0.01 0.01 0.01 0.01 0.01 0.01 0.01 0.01 0.02 0.02 0.02 0.02 0.01 0.02 0.04 0.04 0.04 0.04 0.04 0.04 0.03 0.02 0.01 0.02 0.02 0.01 0.01 0.01 0.01 0.01 0.01 0.01 0.00 0.01 0.01 0.01 0.01 0.01 0.02 0.02 0.03 0.04 0.03 0.03 0.02
0.02 0.02 0.02 0.01 0.01 0.01 0.00 0.01 0.02 0.01 0.01 0.01 0.02 0.02 0.02 0.02 0.02 0.02 0.03 0.04 0.03 0.03 0.03 0.03 0.03 0.02 0.01 0.01 0.02 0.01 0.01 0.01 0.01 0.01 0.01 0.01 0.00 0.00 0.01 0.01 0.01 0.01 0.01 0.01 0.01 0.02 0.04 0.04 0.03
0.02 0.02 0.03 0.02 0.01 0.01 0.01 0.02 0.03 0.02 0.02 0.01 0.01 0.01 0.01 0.01 0.02 0.02 0.02 0.03 0.02 0.02 0.02 0.03 0.03 0.02 0.01 0.01 0.01 0.01 0.01 0.01 0.00 0.00 0.00 0.00 0.00 0.00 0.01 0.01 0.01 0.01 0.01 0.01 0.01 0.02 0.03 0.04 0.04
0.02 0.02 0.02 0.03 0.02 0.01 0.01 0.02 0.03 0.02 0.01 0.01 0.01 0.02 0.02 0.01 0.01 0.01 0.01 0.02 0.02 0.02 0.02 0.02 0.02 0.02 0.02 0.01 0.01 0.01 0.01 0.01 0.01 0.00 0.00 0.00 0.00 0.00 0.00 0.01 0.01 0.01 0.01 0.01 0.01 0.01 0.02 0.02 0.02
0.01 0.03 0.03 0.03 0.03 0.02 0.01 0.02 0.02 0.01 0.01 0.01 0.01 0.01 0.01 0.00 0.01 0.01 0.01 0.01 0.02 0.02 0.02 0.01 0.02 0.02 0.02 0.01 0.01 0.01 0.01 0.01 0.00 0.00 0.00 0.00 0.00 0.00 0.00 0.00 0.01 0.01 0.02 0.02 0.01 0.01 0.01 0.01 0.02
0.02 0.02 0.04 0.05 0.04 0.03 0.02 0.01 0.01 0.01 0.01 0.01 0.01 0.01 0.00 0.00 0.00 0.01 0.01 0.01 0.01 0.02 0.02 0.01 0.02 0.02 0.02 0.02 0.01 0.01 0.01 0.01 0.00 0.00 0.00 0.00 0.00 0.00 0.00 0.01 0.01 0.01 0.01 0.01 0.01 0.01 0.01 0.02 0.03
0.01 0.02 0.03 0.05 0.04 0.03 0.03 0.01 0.00 0.00 0.01 0.01 0.01 0.01 0.00 0.00 0.00 0.00 0.01 0.01 0.01 0.01 0.02 0.03 0.03 0.02 0.03 0.02 0.02 0.02 0.02 0.01 0.01 0.01 0.00 0.01 0.01 0.01 0.01 0.01 0.01 0.01 0.01 0.01 0.01 0.01 0.02 0.03 0.04
MSLP
1008.75 1009.85 1011.19 1012.58 1013.81 1014.74 1015.24 1015.30 1014.99 1014.43 1013.80 1013.27 1012.96 1012.91 1013.09 1013.42 1013.78 1014.05 1014.14 1014.03 1013.75 1013.36 1012.95 1012.61 1012.38 1012.28 1012.29 1012.37 1012.46 1012.53 1012.57 1012.59 1012.61 1012.67 1012.79 1012.97 1013.20 1013.47 1013.72 1013.94 1014.10 1014.20 1014.26 1014.30 1014.32 1014.36 1014.41 1014.47 1014.52
1009.24 1010.50 1011.90 1013.25 1014.38 1015.12 1015.40 1015.24 1014.72 1014.01 1013.28 1012.70 1012.37 1012.33 1012.54 1012.90 1013.28 1013.57 1013.69 1013.62 1013.38 1013.05 1012.71 1012.44 1012.28 1012.25 1012.33 1012.46 1012.60 1012.71 1012.78 1012.82 1012.86 1012.92 1013.02 1013.18 1013.39 1013.61 1013.83 1014.01 1014.15 1014.24 1014.29 1014.33 1014.37 1014.42 1014.48 1014.55 1014.61
1009.77 1011.11 1012.49 1013.75 1014.69 1015.22 1015.28 1014.92 1014.27 1013.47 1012.72 1012.17 1011.89 1011.91 1012.16 1012.54 1012.93 1013.21 1013.33 1013.26 1013.05 1012.76 1012.49 1012.29 1012.21 1012.26 1012.40 1012.58 1012.76 1012.90 1012.99 1013.04 1013.07 1013.12 1013.20 1013.33 1013.49 1013.67 1013.84 1013.98 1014.10 1014.18 1014.24 1014.30 1014.37 1014.45 1014.54 1014.64 1014.72
1010.37 1011.70 1013.00 1014.08 1014.81 1015.11 1014.97 1014.47 1013.74 1012.95 1012.26 1011.80 1011.62 1011.72 1012.01 1012.40 1012.77 1013.02 1013.10 1013.02 1012.82 1012.57 1012.36 1012.23 1012.23 1012.34 1012.53 1012.74 1012.94 1013.08 1013.17 1013.21 1013.23 1013.26 1013.32 1013.41 1013.53 1013.67 1013.80 1013.91 1014.00 1014.09 1014.17 1014.26 1014.38 1014.51 1014.65 1014.79 1014.89
1011.04 1012.30 1013.44 1014.30 1014.79 1014.87 1014.56 1013.98 1013.24 1012.53 1011.96 1011.64 1011.59 1011.77 1012.10 1012.48 1012.80 1012.99 1013.02 1012.91 1012.72 1012.51 1012.36 1012.31 1012.37 1012.53 1012.74 1012.96 1013.14 1013.26 1013.32 1013.35 1013.35 1013.37 1013.41 1013.48 1013.57 1013.68 1013.78 1013.87 1013.95 1014.04 1014.15 1014.29 1014.46 1014.65 1014.85 1015.02 1015.16
1011.75 1012.87 1013.79 1014.41 1014.66 1014.54 1014.12 1013.50 1012.82 1012.23 1011.83 1011.67 1011.75 1012.00 1012.36 1012.70 1012.96 1013.08 1013.06 1012.93 1012.75 1012.59 1012.50 1012.52 1012.63 1012.82 1013.02 1013.21 1013.35 1013.43 1013.46 1013.46 1013.45 1013.46 1013.51 1013.58 1013.67 1013.76 1013.84 1013.91 1013.99 1014.09 1014.22 1014.40 1014.62 1014.86 1015.11 1015.34 1015.51
1012.41 1013.34 1014.01 1014.37 1014.40 1014.12 1013.62 1013.02 1012.44 1012.01 1011.79 1011.79 1011.99 1012.31 1012.66 1012.96 1013.15 1013.20 1013.14 1013.00 1012.86 1012.76 1012.75 1012.82 1012.98 1013.17 1013.35 1013.49 1013.57 1013.59 1013.58 1013.55 1013.55 1013.58 1013.65 1013.75 1013.85 1013.94 1014.02 1014.08 1014.15 1014.24 1014.38 1014.58 1014.84 1015.13 1015.43 1015.68 1015.88
1012.92 1013.61 1014.03 1014.15 1013.97 1013.57 1013.04 1012.50 1012.05 1011.79 1011.74 1011.89 1012.19 1012.54 1012.88 1013.13 1013.25 1013.25 1013.17 1013.06 1012.97 1012.95 1013.02 1013.16 1013.35 1013.53 1013.67 1013.75 1013.76 1013.73 1013.68 1013.65 1013.66 1013.74 1013.85 1013.99 1014.13 1014.24 1014.31 1014.35 1014.40 1014.47 1014.61 1014.81 1015.09 1015.40 1015.73 1016.01 1016.23
1013.16 1013.62 1013.80 1013.70 1013.36 1012.88 1012.36 1011.90 1011.60 1011.50 1011.61 1011.88 1012.24 1012.61 1012.92 1013.12 1013.20 1013.18 1013.10 1013.04 1013.02 1013.09 1013.25 1013.45 1013.66 1013.84 1013.94 1013.96 1013.91 1013.83 1013.76 1013.73 1013.79 1013.91 1014.09 1014.29 1014.46 1014.59 1014.66 1014.68 1014.70 1014.74 1014.85 1015.04 1015.31 1015.64 1015.97 1016.28 1016.51
1013.12 1013.36 1013.33 1013.05 1012.60 1012.08 1011.59 1011.23 1011.06 1011.11 1011.35 1011.71 1012.11 1012.48 1012.76 1012.92 1012.97 1012.94 1012.90 1012.89 1012.97 1013.13 1013.37 1013.63 1013.86 1014.03 1014.10 1014.07 1013.98 1013.87 1013.79 1013.79 1013.89 1014.08 1014.33 1014.58 1014.79 1014.94 1015.00 1015.01 1014.99 1015.00 1015.07 1015.24 1015.49 1015.81 1016.15 1016.47 1016.72
1012.85 1012.90 1012.69 1012.28 1011.76 1011.23 1010.80 1010.54 1010.49 1010.66 1010.99 1011.40 1011.83 1012.18 1012.43 1012.56 1012.59 1012.57 1012.57 1012.63 1012.79 1013.04 1013.34 1013.65 1013.91 1014.07 1014.12 1014.06 1013.95 1013.83 1013.77 1013.81 1013.96 1014.21 1014.51 1014.81 1015.06 1015.22 1015.28 1015.27 1015.23 1015.21 1015.25 1015.39 1015.63 1015.94 1016.28 1016.60 1016.87
1012.48 1012.37 1012.03 1011.53 1010.98 1010.47 1010.10 1009.92 1009.97 1010.21 1010.60 1011.03 1011.45 1011.78 1012.00 1012.10 1012.12 1012.12 1012.16 1012.28 1012.50 1012.81 1013.16 1013.50 1013.77 1013.94 1013.98 1013.92 1013.82 1013.72 1013.68 1013.76 1013.96 1014.25 1014.59 1014.92 1015.20 1015.38 1015.45 1015.44 1015.40 1015.37 1015.40 1015.53 1015.76 1016.06 1016.40 1016.73 1017.00
1012.17 1011.95 1011.52 1010.97 1010.41 1009.92 1009.60 1009.49 1009.59 1009.87 1010.26 1010.68 1011.07 1011.36 1011.54 1011.63 1011.64 1011.66 1011.72 1011.88 1012.13 1012.47 1012.84 1013.19 1013.47 1013.64 1013.70 1013.67 1013.60 1013.53 1013.54 1013.65 1013.88 1014.20 1014.56 1014.91 1015.20 1015.39 1015.49 1015.51 1015.49 1015.49 1015.54 1015.69 1015.92 1016.23 1016.57 1016.91 1017.19
1012.08 1011.78 1011.30 1010.73 1010.17 1009.71 1009.42 1009.33 1009.43 1009.69 1010.04 1010.41 1010.74 1010.99 1011.13 1011.19 1011.20 1011.22 1011.29 1011.45 1011.70 1012.03 1012.39 1012.74 1013.03 1013.22 1013.32 1013.34 1013.32 1013.31 1013.36 1013.51 1013.75 1014.06 1014.42 1014.76 1015.05 1015.27 1015.41 1015.48 1015.52 1015.58 1015.70 1015.89 1016.15 1016.48 1016.83 1017.16 1017.45
1012.26 1011.92 1011.41 1010.84 1010.29 1009.85 1009.56 1009.44 1009.50 1009.68 1009.95 1010.23 1010.47 1010.65 1010.75 1010.78 1010.78 1010.80 1010.86 1011.01 1011.23 1011.53 1011.86 1012.20 1012.49 1012.72 1012.87 1012.96 1013.02 1013.08 1013.19 1013.35 1013.59 1013.88 1014.21 1014.53 1014.82 1015.05 1015.24 1015.39 1015.52 1015.68 1015.88 1016.13 1016.44 1016.80 1017.16 1017.49 1017.78
1012.68 1012.32 1011.82 1011.26 1010.73 1010.28 1009.96 1009.79 1009.74 1009.80 1009.93 1010.08 1010.22 1010.31 1010.36 1010.37 1010.36 1010.37 1010.42 1010.53 1010.72 1010.97 1011.27 1011.59 1011.89 1012.17 1012.40 1012.58 1012.74 1012.88 1013.05 1013.23 1013.46 1013.71 1013.99 1014.27 1014.53 1014.79 1015.03 1015.26 1015.50 1015.76 1016.06 1016.40 1016.77 1017.15 1017.52 1017.85 1018.14
1013.22 1012.86 1012.39 1011.87 1011.36 1010.91 1010.54 1010.26 1010.08 1009.97 1009.92 1009.91 1009.90 1009.90 1009.89 1009.88 1009.86 1009.87 1009.91 1010.00 1010.15 1010.36 1010.63 1010.94 1011.27 1011.60 1011.92 1012.22 1012.49 1012.74 1012.96 1013.17 1013.38 1013.58 1013.80 1014.02 1014.26 1014.52 1014.80 1015.11 1015.45 1015.83 1016.22 1016.64 1017.05 1017.46 1017.84 1018.17 1018.46
1013.69 1013.37 1012.96 1012.51 1012.04 1011.58 1011.16 1010.76 1010.41 1010.10 1009.84 1009.63 1009.47 1009.36 1009.28 1009.24 1009.23 1009.24 1009.29 1009.37 1009.50 1009.69 1009.94 1010.25 1010.62 1011.03 1011.46 1011.88 1012.28 1012.63 1012.92 1013.16 1013.35 1013.51 1013.67 1013.83 1014.03 1014.28 1014.60 1014.96 1015.39 1015.84 1016.32 1016.79 1017.24 1017.67 1018.05 1018.38 1018.66
1013.95 1013.70 1013.39 1013.04 1012.64 1012.21 1011.73 1011.22 1010.68 1010.15 1009.66 1009.23 1008.89 1008.65 1008.51 1008.44 1008.44 1008.48 1008.55 1008.64 1008.78 1008.96 1009.21 1009.54 1009.96 1010.45 1010.98 1011.53 1012.05 1012.51 1012.88 1013.16 1013.36 1013.49 1013.59 1013.70 1013.86 1014.09 1014.41 1014.81 1015.28 1015.79 1016.31 1016.82 1017.29 1017.71 1018.09 1018.41 1018.71
1013.88 1013.75 1013.59 1013.39 1013.11 1012.73 1012.23 1011.60 1010.89 1010.14 1009.40 1008.74 1008.20 1007.82 1007.59 1007.50 1007.51 1007.58 1007.69 1007.83 1007.98 1008.18 1008.44 1008.80 1009.26 1009.82 1010.45 1011.11 1011.75 1012.32 1012.78 1013.12 1013.33 1013.45 1013.53 1013.60 1013.72 1013.93 1014.24 1014.64 1015.13 1015.66 1016.19 1016.71 1017.17 1017.59 1017.95 1018.28 1018.58
1013.48 1013.51 1013.56 1013.55 1013.43 1013.15 1012.65 1011.96 1011.08 1010.11 1009.13 1008.23 1007.49 1006.95 1006.63 1006.49 1006.51 1006.62 1006.77 1006.95 1007.14 1007.36 1007.64 1008.01 1008.51 1009.12 1009.82 1010.57 1011.31 1011.98 1012.53 1012.94 1013.20 1013.35 1013.42 1013.48 1013.59 1013.78 1014.07 1014.46 1014.94 1015.46 1015.98 1016.48 1016.93 1017.32 1017.67 1017.99 1018.31
1012.85 1013.09 1013.36 1013.60 1013.68 1013.52 1013.07 1012.33 1011.32 1010.16 1008.94 1007.81 1006.86 1006.16 1005.72 1005.53 1005.53 1005.66 1005.85 1006.07 1006.28 1006.52 1006.81 1007.18 1007.68 1008.31 1009.04 1009.84 1010.66 1011.41 1012.06 1012.55 1012.88 1013.08 1013.20 1013.29 1013.40 1013.59 1013.87 1014.25 1014.71 1015.21 1015.71 1016.18 1016.60 1016.98 1017.32 1017.64 1017.96
1012.15 1012.61 1013.14 1013.62 1013.91 1013.91 1013.53 1012.76 1011.66 1010.33 1008.92 1007.57 1006.42 1005.54 1004.98 1004.71 1004.68 1004.80 1005.01 1005.24 1005.47 1005.70 1005.97 1006.32 1006.78 1007.38 1008.11 1008.92 1009.77 1010.59 1011.31 1011.89 1012.32 1012.61 1012.81 1012.96 1013.12 1013.33 1013.63 1014.01 1014.45 1014.92 1015.40 1015.85 1016.26 1016.62 1016.95 1017.27 1017.61
1011.54 1012.21 1012.97 1013.69 1014.18 1014.33 1014.03 1013.27 1012.10 1010.64 1009.07 1007.54 1006.20 1005.16 1004.47 1004.11 1004.02 1004.12 1004.31 1004.53 1004.74 1004.94 1005.16 1005.44 1005.83 1006.36 1007.04 1007.82 1008.66 1009.51 1010.29 1010.96 1011.49 1011.90 1012.20 1012.45 1012.69 1012.97 1013.30 1013.70 1014.15 1014.62 1015.09 1015.53 1015.93 1016.29 1016.63 1016.96 1017.29
1011.14 1011.98 1012.93 1013.83 1014.48 1014.75 1014.52 1013.78 1012.59 1011.05 1009.36 1007.70 1006.22 1005.05 1004.24 1003.78 1003.61 1003.65 1003.79 1003.97 1004.13 1004.26 1004.40 1004.59 1004.88 1005.30 1005.88 1006.59 1007.39 1008.23 1009.04 1009.78 1010.42 1010.95 1011.38 1011.75 1012.10 1012.46 1012.86 1013.30 1013.78 1014.27 1014.75 1015.20 1015.62 1016.00 1016.35 1016.69 1017.04
1011.01 1011.95 1013.01 1014.00 1014.75 1015.09 1014.92 1014.21 1013.01 1011.45 1009.72 1007.99 1006.44 1005.17 1004.27 1003.72 1003.47 1003.43 1003.50 1003.60 1003.68 1003.73 1003.76 1003.83 1003.99 1004.28 1004.72 1005.32 1006.05 1006.84 1007.66 1008.45 1009.17 1009.81 1010.37 1010.87 1011.34 1011.81 1012.29 1012.79 1013.32 1013.84 1014.36 1014.84 1015.29 1015.70 1016.08 1016.44 1016.80
1011.13 1012.08 1013.14 1014.14 1014.90 1015.25 1015.10 1014.43 1013.27 1011.75 1010.05 1008.34 1006.77 1005.49 1004.53 1003.91 1003.58 1003.46 1003.44 1003.45 1003.43 1003.37 1003.29 1003.22 1003.24 1003.38 1003.68 1004.14 1004.76 1005.48 1006.27 1007.07 1007.84 1008.57 1009.24 1009.85 1010.44 1011.01 1011.58 1012.16 1012.74 1013.32 1013.88 1014.41 1014.90 1015.36 1015.78 1016.17 1016.54
1011.43 1012.29 1013.25 1014.16 1014.83 1015.14 1014.99 1014.36 1013.29 1011.87 1010.28 1008.67 1007.19 1005.94 1004.99 1004.34 1003.95 1003.74 1003.63 1003.53 1003.40 1003.23 1003.02 1002.83 1002.70 1002.69 1002.83 1003.15 1003.63 1004.25 1004.97 1005.74 1006.53 1007.31 1008.05 1008.76 1009.44 1010.10 1010.75 1011.39 1012.04 1012.67 1013.28 1013.86 1014.40 1014.91 1015.37 1015.80 1016.19
1011.81 1012.50 1013.27 1013.98 1014.51 1014.72 1014.55 1013.98 1013.03 1011.78 1010.38 1008.96 1007.64 1006.51 1005.62 1004.98 1004.55 1004.27 1004.06 1003.85 1003.62 1003.33 1003.01 1002.69 1002.42 1002.27 1002.25 1002.41 1002.75 1003.24 1003.86 1004.56 1005.33 1006.11 1006.88 1007.64 1008.39 1009.12 1009.83 1010.53 1011.22 1011.89 1012.55 1013.18 1013.77 1014.33 1014.84 1015.30 1015.73
1012.19 1012.64 1013.16 1013.62 1013.95 1014.05 1013.85 1013.35 1012.56 1011.54 1010.39 1009.23 1008.13 1007.17 1006.39 1005.79 1005.34 1005.00 1004.70 1004.40 1004.05 1003.65 1003.22 1002.79 1002.40 1002.11 1001.96 1001.96 1002.14 1002.48 1002.97 1003.58 1004.27 1005.02 1005.79 1006.57 1007.35 1008.12 1008.87 1009.61 1010.34 1011.05 1011.73 1012.40 1013.03 1013.62 1014.18 1014.68 1015.15
Thickness
5792 5791 5788 5774 5748 5725 5720 5731 5741 5744 5748 5755 5758 5752 5742 5735 5731 5725 5743 5751 5752 5751 5752 5753 5754 5755 5756 5757 5758 5759 5759 5760 5761 5761 5762 5762 5763 5763 5763 5764 5764 5764 5764 5765 5765 5765 5765 5765 5766
5791 5790 5778 5758 5729 5709 5716 5732 5737 5746 5754 5758 5756 5751 5742 5737 5742 5742 5745 5749 5751 5751 5750 5751 5752 5753 5754 5754 5755 5756 5756 5757 5757 5758 5758 5759 5759 5760 5760 5761 5761 5761 5761 5761 5762 5762 5762 5762 5763
5791 5786 5762 5741 5724 5713 5721 5735 5742 5753 5760 5758 5749 5747 5741 5737 5743 5744 5748 5750 5749 5749 5749 5749 5750 5750 5751 5752 5752 5753 5753 5754 5754 5755 5755 5755 5756 5756 5757 5757 5758 5758 5758 5758 5759 5759 5760 5760 5760
5783 5768 5752 5731 5722 5729 5735 5740 5748 5750 5754 5755 5747 5738 5740 5747 5748 5748 5749 5749 5747 5746 5746 5747 5747 5748 5748 5749 5750 5750 5750 5751 5751 5751 5752 5752 5752 5752 5753 5754 5754 5755 5755 5755 5756 5756 5757 5757 5757
5775 5753 5732 5720 5725 5735 5743 5748 5751 5747 5746 5746 5743 5731 5732 5745 5750 5749 5747 5747 5745 5744 5744 5744 5744 5745 5746 5746 5747 5747 5747 5748 5748 5748 5748 5748 5749 5749 5749 5750 5751 5751 5751 5752 5753 5753 5753 5754 5756
5755 5741 5718 5711 5723 5737 5744 5751 5750 5745 5743 5744 5739 5729 5729 5742 5744 5745 5745 5744 5743 5742 5741 5741 5741 5742 5742 5743 5743 5744 5744 5744 5744 5745 5745 5745 5745 5745 5746 5746 5747 5747 5748 5748 5749 5749 5750 5751 5753
5747 5731 5718 5718 5722 5730 5743 5752 5747 5742 5740 5742 5743 5727 5728 5736 5742 5744 5743 5742 5740 5740 5739 5738 5739 5739 5739 5740 5740 5740 5741 5741 5741 5741 5741 5741 5741 5741 5742 5742 5743 5743 5743 5744 5745 5745 5746 5746 5747
5755 5733 5721 5719 5721 5728 5746 5751 5750 5745 5742 5750 5746 5727 5725 5735 5742 5742 5741 5739 5737 5737 5736 5736 5736 5736 5736 5736 5737 5737 5737 5737 5737 5737 5737 5737 5737 5738 5738 5738 5738 5739 5739 5740 5740 5741 5741 5742 5742
5758 5725 5713 5721 5725 5732 5746 5745 5748 5752 5747 5746 5745 5741 5742 5743 5741 5737 5733 5732 5732 5733 5733 5733 5733 5733 5733 5734 5734 5734 5734 5734 5733 5733 5733 5733 5733 5734 5734 5734 5735 5735 5735 5736 5736 5736 5737 5737 5737
5744 5718 5724 5737 5740 5738 5744 5744 5744 5741 5735 5734 5736 5740 5743 5740 5736 5731 5729 5727 5728 5729 5730 5731 5731 5731 5731 5731 5731 5730 5730 5730 5730 5730 5730 5729 5729 5729 5730 5730 5730 5730 5731 5731 5731 5731 5731 5732 5732
5743 5729 5737 5744 5748 5746 5743 5743 5746 5735 5727 5731 5731 5734 5736 5735 5732 5730 5728 5728 5729 5729 5730 5730 5730 5729 5729 5728 5728 5727 5727 5727 5727 5726 5726 5726 5725 5725 5725 5725 5725 5725 5726 5726 5725 5726 5725 5726 5726
5741 5741 5744 5746 5750 5746 5743 5742 5739 5737 5736 5743 5742 5740 5736 5732 5730 5729 5728 5728 5729 5728 5729 5729 5729 5728 5727 5726 5725 5724 5724 5723 5723 5723 5723 5722 5721 5721 5721 5720 5720 5720 5720 5720 5720 5720 5720 5720 5720
5738 5740 5746 5748 5748 5746 5744 5740 5737 5737 5743 5744 5741 5737 5733 5731 5730 5731 5731 5730 5729 5728 5728 5728 5727 5726 5725 5723 5722 5722 5721 5720 5720 5720 5719 5718 5717 5716 5716 5715 5715 5715 5715 5715 5714 5714 5714 5714 5714
5740 5741 5741 5743 5743 5743 5737 5735 5734 5733 5740 5738 5735 5732 5731 5730 5730 5729 5728 5727 5727 5727 5727 5727 5726 5724 5723 5721 5720 5719 5718 5717 5717 5716 5715 5714 5714 5713 5711 5710 5710 5710 5710 5709 5709 5708 5708 5708 5708
5743 5732 5731 5735 5738 5739 5735 5722 5726 5734 5736 5732 5730 5730 5730 5730 5730 5729 5729 5728 5727 5726 5726 5725 5724 5722 5720 5718 5717 5716 5715 5714 5713 5712 5711 5710 5710 5708 5707 5706 5705 5705 5705 5704 5704 5703 5702 5702 5702
5731 5717 5709 5724 5732 5735 5724 5707 5724 5733 5730 5724 5724 5724 5726 5727 5729 5730 5730 5729 5728 5726 5724 5723 5723 5719 5717 5715 5713 5712 5711 5710 5708 5708 5707 5706 5706 5704 5703 5701 5700 5700 5700 5699 5698 5696 5695 5694 5694
5710 5700 5703 5715 5729 5728 5718 5709 5722 5730 5728 5722 5721 5721 5722 5724 5726 5728 5729 5729 5727 5725 5722 5720 5719 5716 5714 5712 5710 5708 5706 5705 5704 5704 5703 5702 5701 5700 5699 5697 5696 5695 5694 5693 5692 5690 5688 5687 5686
5697 5699 5704 5707 5721 5721 5712 5710 5719 5726 5725 5722 5721 5720 5720 5721 5723 5726 5728 5728 5726 5724 5721 5718 5716 5713 5711 5708 5705 5703 5701 5700 5700 5699 5698 5698 5697 5696 5695 5693 5692 5691 5689 5687 5686 5684 5683 5681 5681
5711 5705 5702 5710 5724 5716 5708 5710 5715 5721 5721 5719 5718 5718 5718 5721 5724 5725 5726 5725 5722 5720 5717 5715 5712 5709 5707 5704 5700 5697 5695 5695 5694 5694 5694 5694 5693 5691 5690 5688 5687 5685 5683 5681 5680 5679 5676 5674 5674
5712 5703 5703 5711 5722 5715 5706 5708 5716 5719 5720 5721 5720 5719 5719 5719 5719 5720 5721 5721 5719 5716 5714 5712 5710 5707 5705 5703 5700 5697 5694 5691 5691 5690 5690 5689 5688 5687 5686 5684 5682 5680 5678 5676 5675 5673 5670 5668 5668
5709 5704 5704 5704 5712 5713 5706 5699 5707 5716 5721 5723 5723 5723 5722 5721 5718 5718 5717 5717 5716 5714 5712 5711 5708 5706 5703 5701 5697 5693 5689 5687 5685 5685 5685 5685 5684 5683 5682 5680 5678 5676 5674 5671 5670 5668 5666 5662 5661
5701 5715 5713 5708 5696 5687 5698 5677 5696 5707 5712 5716 5719 5719 5720 5721 5720 5718 5716 5714 5714 5713 5712 5709 5706 5704 5701 5699 5695 5690 5686 5682 5682 5681 5681 5681 5681 5679 5678 5676 5674 5672 5669 5667 5665 5664 5662 5659 5656
5710 5719 5713 5707 5695 5685 5687 5676 5686 5701 5702 5709 5715 5718 5720 5720 5719 5717 5716 5715 5714 5712 5709 5707 5704 5701 5699 5697 5693 5689 5685 5682 5681 5679 5678 5677 5676 5676 5674 5672 5670 5668 5665 5663 5661 5659 5658 5655 5653
5717 5708 5701 5691 5682 5668 5681 5673 5677 5691 5701 5709 5715 5717 5719 5718 5717 5716 5715 5713 5710 5708 5705 5703 5700 5697 5696 5693 5691 5688 5684 5681 5678 5676 5674 5672 5671 5671 5670 5669 5666 5664 5662 5660 5658 5656 5654 5652 5649
5703 5681 5664 5661 5654 5660 5680 5674 5678 5700 5709 5712 5713 5715 5717 5716 5714 5710 5708 5706 5704 5703 5701 5699 5697 5694 5692 5690 5687 5685 5683 5680 5677 5675 5672 5670 5667 5666 5666 5665 5663 5661 5659 5657 5655 5652 5650 5648 5646
5694 5680 5659 5649 5648 5656 5672 5669 5684 5703 5709 5712 5713 5713 5712 5710 5710 5708 5706 5704 5702 5700 5697 5695 5693 5691 5689 5687 5684 5683 5681 5678 5676 5674 5671 5669 5667 5665 5664 5662 5660 5658 5656 5654 5651 5649 5647 5645 5642
5689 5679 5680 5661 5657 5650 5657 5671 5687 5700 5702 5705 5705 5705 5704 5704 5704 5703 5702 5699 5698 5696 5694 5693 5690 5688 5686 5684 5682 5680 5678 5676 5674 5671 5669 5667 5665 5663 5661 5659 5657 5655 5652 5650 5648 5645 5643 5641 5639
5697 5686 5667 5657 5646 5639 5650 5660 5666 5683 5689 5694 5695 5696 5698 5699 5698 5697 5696 5695 5694 5692 5691 5689 5688 5685 5683 5681 5680 5678 5676 5674 5671 5669 5666 5664 5662 5661 5658 5655 5653 5650 5648 5646 5643 5641 5639 5637 5634
5685 5680 5668 5654 5649 5638 5636 5651 5680 5682 5685 5685 5689 5692 5692 5693 5692 5691 5691 5690 5688 5687 5685 5684 5683 5681 5679 5677 5676 5675 5672 5670 5668 5665 5663 5661 5659 5657 5655 5652 5649 5646 5644 5641 5639 5636 5634 5632 5629
5685 5677 5665 5650 5645 5641 5636 5648 5683 5682 5683 5684 5685 5687 5688 5688 5686 5686 5685 5683 5681 5680 5679 5678 5677 5676 5675 5674 5673 5671 5669 5666 5663 5661 5659 5657 5655 5653 5651 5648 5645 5642 5640 5637 5635 5632 5630 5627 5624